Regional Weather Roundup
Issued by NWS

Home | Current Version | Previous Version | Graphics & Text | Print | Product List | Glossary On
Versions: 1 2 3 4 5 6 7 8 9 10 11 12 13 14 15 16 17 18 19 20 21 22 23 24 25 26 27 28 29 30 31 32 33 34 35 36 37 38 39 40 41 42 43 44 45 46 47 48 49 50
000
ASUS45 KABQ 161110
RWRNM
NEW MEXICO REGIONAL WEATHER ROUNDUP
NATIONAL WEATHER SERVICE ALBUQUERQUE NM
400 AM MST MON JAN 16 2017

NOTE: "FAIR" MEANS FEW OR NO CLOUDS BELOW 12,000 FEET AGL WITH NO
       SIGNIFICANT WEATHER OR OBSTRUCTIONS TO VISION.

      THIS PRODUCT IS RELEASED AS TWO VERSIONS.  ONE VERSION NEAR
      THE TOP OF THE HOUR CONTAINING PRELIMINARY DATA FROM ALBUQUERQUE
      AND OTHER STATIONS.  A FINAL VERSION WITH ADDITIONAL DATA IS
      ISSUED ABOUT 10 MINUTES AFTER THE HOUR.

NMZ501-503-504-510>518-161200-
NORTHWEST PLATEAU/NORTHCENTRAL MOUNTAINS

CITY           SKY/WX    TMP DP  RH WIND       PRES   REMARKS
FARMINGTON     LGT RAIN  36  34  92 W15       29.89F WCI  27
LOS ALAMOS     FOG       31  31 100 CALM      29.89R VSB 3/4
SANTA FE       FOG       33  33 100 W6        29.87S VSB 1/4 WCI  28
TAOS           CLOUDY    30  25  80 CALM      29.87F
ANGEL FIRE     CLOUDY    29  25  85 W3        29.86S

$$
NMZ402-403-502-505>509-161200-
WESTCENTRAL MOUNTAINS/SOUTHWEST MOUNTAINS

CITY           SKY/WX    TMP DP  RH WIND       PRES   REMARKS
GALLUP         CLOUDY    35  32  88 SW7       29.94F WCI  29
GRANTS         MOCLDY    32  30  93 NW5       29.93F WCI  27
SILVER CITY    FAIR      35  33  94 NW9       29.97F WCI  27

$$
NMZ407-409-411-412-161200-
SOUTHERN DESERTS

CITY           SKY/WX    TMP DP  RH WIND       PRES   REMARKS
DEMING         FAIR      37  36  96 S3        29.98S
LAS CRUCES     FAIR      38  36  93 CALM      29.98R
HOLLOMAN AFB   FAIR      38  38 100 SE7       29.98R WCI  33
ALAMOGORDO     FAIR      37  37 100 S7        29.95F WCI  32
T OR C         FAIR      35  33  92 CALM      29.93F

$$
NMZ519>523-161200-
CENTRAL VALLEYS/CENTRAL HIGHLANDS

CITY           SKY/WX    TMP DP  RH WIND       PRES   REMARKS
ALBUQUERQUE    MOCLDY    36  36 100 CALM      29.91S
DOUBLE EAGLE   FOG       33  33  99 CALM      29.91S VSB<1/4
MORIARTY ARPT  MOCLDY    27  25  92 SW5       29.90S WCI  21
CLINES CORNERS FOG       32  31  96 W18       29.86S VSB 1/4 WCI  20
BELEN          FAIR      35  33  92 SW8       29.91F WCI  29
SOCORRO        FOG       36  35  98 E7        29.94S VSB 1/4 WCI  30

$$
NMZ524>526-539-540-161200-
SOUTHCENTRAL MOUNTAINS

CITY           SKY/WX    TMP DP  RH WIND       PRES   REMARKS
RUIDOSO        MOCLDY    32  32 100 NE5       29.93S WCI  27

$$
NMZ527>531-161200-
NORTHEAST HIGHLANDS/NORTHEAST PLAINS

CITY           SKY/WX    TMP DP  RH WIND       PRES   REMARKS
LAS VEGAS      FOG       25  24  96 E3        29.83R VSB 1/2
RATON          FOG       29  28  96 CALM      29.82S VSB 1/4
CLAYTON        LGT SNOW  32  32 100 N13       29.81F FOG     WCI  22

$$
NMZ532>537-161200-
EASTCENTRAL PLAINS

CITY           SKY/WX    TMP DP  RH WIND       PRES   REMARKS
TUCUMCARI      MOCLDY    29  28  96 W3        29.84F FOG
CANNON AFB     FAIR      30  30 100 W7        29.87F WCI  23
CLOVIS AIRPORT FAIR      28  25  86 W8        29.86F WCI  20

$$
NMZ028-029-538-161200-
SOUTHEAST PLAINS

CITY           SKY/WX    TMP DP  RH WIND       PRES   REMARKS
ROSWELL        FOG       35  33  92 SW5       29.91F VSB 1/4 WCI  31
ARTESIA        FOG       34  34 100 CALM      29.92F VSB<1/4
CARLSBAD       FAIR      37  37 100 N8        29.91S WCI  31


$$




USA.gov is the U.S. government's official web portal to all federal, state and local government web resources and services.